Location: Bijele Vode
(45.2833°N, 16.2000°E)
Time: 12:43:28
(UTC+00:00)

Cosmos 1844 - Pass Details

Date: 18 September 2020
Orbit: 824 x 866 km, 70.9° (Epoch: 29 October)

Event Time Altitude Azimuth Distance (km) Brightness Sun altitude
Rises 19:25:50 0° 206° (SSW) 3,413 6.8 -25.2°
Reaches altitude 10° 19:28:17 10° 207° (SSW) 2,475 6.1 -25.6°
Maximum altitude 19:33:59 83° 295° (WNW) 857 3.7 -26.5°
Drops below altitude 10° 19:39:40 10° 25° (NNE) 2,462 6.2 -27.3°
Sets 19:42:06 0° 26° (NNE) 3,395 6.9 -27.6°
